Location: Arcueil
(48.7999°N, 2.3326°E)
Time: 19:22:54
(UTC+00:00)

Cosmos 2278 - Pass Details

Date: 03 February 2023
Orbit: 838 x 853 km, 71.1° (Epoch: 26 March)

Event Time Altitude Azimuth Distance (km) Brightness Sun altitude
Rises 18:00:34 0° 219° (SW) 3,389 7.7 -11.7°
Reaches altitude 10° 18:03:02 10° 223° (SW) 2,460 7.0 -12.1°
Maximum altitude 18:08:36 60° 302° (WNW) 972 4.3 -13.0°
Drops below altitude 10° 18:14:15 10° 23° (NNE) 2,486 5.8 -13.9°
Enters shadow 18:16:15 - 26° (NNE) 3,231 6.4 -14.2°
